New York Downtown Manhattan/w, NY

8:35 AM EDT on October 23, 2019 (GMT -0400)
New York Downtown Manhattan/w

Weather History for KJRB - August, 2019

Change the Weather History Date:

Thursday, August 8, 2019

  Actual Average (KEWR) Record (KEWR)
Temperature  
Mean Temperature 78 °F -  
Max Temperature 87 °F 86 °F 101 °F (2001)
Min Temperature 69 °F 69 °F 56 °F (1950)
Cooling Degree Days 12    
Growing Degree Days 28 (Base 50)    
Moisture  
Dew Point 68 °F    
Average Humidity 77    
Maximum Humidity 94    
Minimum Humidity 53    
Precipitation  
Precipitation 0.02 in - - ()
Sea Level Pressure  
Sea Level Pressure 29.75 in    
Wind  
Wind Speed 9 mph (WSW)    
Max Wind Speed 17 mph    
Max Gust Speed 45 mph    
Visibility 10 miles    
Events Rain , Thunderstorm    
Averages and records for this station are not official NWS values.
T = Trace of Precipitation, MM = Missing Value Source: NWS Daily Summary

Daily Weather History Graph

Daily Weather History Graph

Search for Another Location

Airport or City:

Astronomy

Aug. 08, 2019 Rise Set
Actual Time 5:59 AM EDT 8:03 PM EDT
Civil Twilight 5:29 AM EDT 8:33 PM EDT
Nautical Twilight 4:52 AM EDT 9:10 PM EDT
Astronomical Twilight 4:12 AM EDT 9:49 PM EDT
Moon 2:36 PM EDT (8/8) 12:20 AM EDT (8/8)
Length of Visible Light 15h 04m
Length of Day
14h 04m
First Quarter, 60% of the Moon is Illuminated
Aug 8
First Quarter
Aug 15
Full
Aug 23
Last Quarter
Aug 30
New
Sep 5
First Quarter

Hourly Weather History & Observations

Time (EDT) Temp. Heat Index Dew Point Humidity Pressure Visibility Wind Dir Wind Speed Gust Speed Precip Events Conditions
12:16 AM 71.6 °F - 68.0 °F 88% 29.79 in 10.0 mi WSW 5.8 mph - N/A   Mostly Cloudy
12:39 AM 71.6 °F - 68.0 °F 88% 29.79 in 10.0 mi West 10.4 mph - N/A   Overcast
12:56 AM 71.1 °F - 68.0 °F 90% 29.79 in 10.0 mi West 10.4 mph - N/A   Mostly Cloudy
1:40 AM 69.8 °F - 68.0 °F 94% 29.78 in 10.0 mi WSW 13.8 mph - N/A   Overcast
1:56 AM 71.1 °F - 68.0 °F 90% 29.77 in 10.0 mi WSW 13.8 mph - N/A   Overcast
2:07 AM 71.6 °F - 68.0 °F 88% 29.77 in 10.0 mi WSW 12.7 mph - N/A   Overcast
2:47 AM 71.6 °F - 68.0 °F 88% 29.76 in 10.0 mi West 11.5 mph - N/A   Overcast
2:56 AM 71.1 °F - 68.0 °F 90% 29.75 in 10.0 mi WSW 10.4 mph - N/A   Overcast
3:56 AM 70.0 °F - 68.0 °F 93% 29.76 in 10.0 mi SW 5.8 mph - N/A   Overcast
4:56 AM 70.0 °F - 68.0 °F 93% 29.75 in 10.0 mi West 6.9 mph - N/A   Overcast
5:56 AM 70.0 °F - 66.9 °F 90% 29.75 in 10.0 mi West 5.8 mph - N/A   Mostly Cloudy
6:56 AM 71.1 °F - 66.9 °F 87% 29.76 in 10.0 mi West 8.1 mph - N/A   Overcast
7:56 AM 72.0 °F - 68.0 °F 87% 29.78 in 10.0 mi SSW 6.9 mph 27.6 mph N/A   Overcast
8:56 AM 73.0 °F - 68.0 °F 84% 29.77 in 10.0 mi WSW 6.9 mph 33.4 mph N/A   Overcast
9:35 AM 75.2 °F - 69.8 °F 83% 29.77 in 10.0 mi SW 5.8 mph - N/A   Overcast
9:56 AM 77.0 °F - 69.1 °F 76% 29.77 in 10.0 mi West 8.1 mph - N/A   Overcast
10:27 AM 78.8 °F - 69.8 °F 74% 29.76 in 10.0 mi Variable 6.9 mph - N/A   Partly Cloudy
10:56 AM 80.1 °F 82.9 °F 69.1 °F 69% 29.76 in 9.0 mi SW 5.8 mph - N/A   Clear
11:56 AM 82.9 °F 87.0 °F 70.0 °F 65% 29.75 in 10.0 mi SW 3.5 mph - N/A   Clear
12:56 PM 84.0 °F 88.4 °F 70.0 °F 63% 29.73 in 10.0 mi SSW 8.1 mph - N/A   Clear
1:56 PM 84.9 °F 89.4 °F 70.0 °F 61% 29.72 in 10.0 mi SW 9.2 mph - N/A   Clear
2:56 PM 86.0 °F 90.1 °F 69.1 °F 57% 29.70 in 10.0 mi WSW 10.4 mph 26.5 mph N/A   Mostly Cloudy
3:56 PM 86.0 °F 88.8 °F 66.9 °F 53% 29.69 in 10.0 mi WSW 11.5 mph 42.6 mph N/A   Clear
4:56 PM 86.0 °F 89.4 °F 68.0 °F 55% 29.69 in 10.0 mi WSW 10.4 mph - N/A   Partly Cloudy
5:56 PM 86.0 °F 89.4 °F 68.0 °F 55% 29.69 in 10.0 mi West 13.8 mph 38.0 mph N/A   Partly Cloudy
6:56 PM 84.0 °F 86.5 °F 66.9 °F 56% 29.71 in 10.0 mi West 13.8 mph 44.9 mph N/A   Scattered Clouds
7:15 PM 82.4 °F 85.4 °F 68.0 °F 62% 29.70 in 10.0 mi West 8.1 mph - N/A Thunderstorm Partly Cloudy
7:56 PM 82.0 °F 84.9 °F 68.0 °F 62% 29.75 in 10.0 mi Variable 6.9 mph - N/A Thunderstorm Thunderstorm
8:13 PM 75.2 °F - 66.2 °F 73% 29.75 in 7.0 mi NE 17.3 mph 21.9 mph 0.01 in Rain Light Rain
8:56 PM 73.0 °F - 66.0 °F 79% 29.74 in 10.0 mi SSE 5.8 mph - 0.01 in   Partly Cloudy
9:56 PM 72.0 °F - 64.9 °F 78% 29.74 in 10.0 mi West 4.6 mph - 0.01 in   Clear
10:56 PM 73.0 °F - 64.9 °F 76% 29.72 in 10.0 mi WSW 5.8 mph - N/A   Clear
11:56 PM 73.0 °F - 66.0 °F 79% 29.71 in 10.0 mi West 4.6 mph - N/A   Clear